User: anonymous   Login
Location: Unspecified
(0.0000°N, 0.0000°E)
Time: 21:02:12
(UTC+00:00)
Language:

ETS 8 - Orbit

View from above orbital plane
View from above orbital plane
View from above satellite
View from above satellite

Ground track
Ground track

The orbit data is extracted from the following two-line orbital elements,

1 29656U 06059A   18289.06147125 -.00000137  00000-0  00000+0 0  9993
2 29656   6.4435  56.6213 0007805 192.5947 167.4023  0.99008497 43277
Epoch (UTC): 16 October 2018 01:28:31
Eccentricity: 0.0007805
inclination: 6.4435°
perigee height: 36111 km
apogee height: 36177 km
right ascension of ascending node: 56.6213°
argument of perigee: 192.5947°
revolutions per day: 0.99008497
mean anomaly at epoch: 167.4023°
orbit number at epoch: 4327

The dashed part of the orbit path shows where the satellite is in the earth's shadow,  

DLR